Weather History for EGPK - May, 2013

Change the Weather History Date:

Saturday, May 18, 2013

  Actual Average Record
Temperature  
Mean Temperature 50 °F -  
Max Temperature 55 °F 59 °F 64 °F (1999)
Min Temperature 46 °F 46 °F 35 °F (2008)
Degree Days  
Heating Degree Days 14    
Moisture  
Dew Point 48 °F    
Average Humidity 92    
Maximum Humidity 100    
Minimum Humidity 66    
Precipitation  
Precipitation 0.00 in - - ()
Sea Level Pressure  
Sea Level Pressure 29.77 in    
Wind  
Wind Speed 4 mph ()    
Max Wind Speed 17 mph    
Max Gust Speed 26 mph    
Visibility 4.8 miles    
Events Rain    
Averages and records for this station are not official NWS values.
T = Trace of Precipitation, MM = Missing Value Source: Averaged Metar Reports

Daily Weather History Graph

Daily Weather History Graph

Search for Another Location

Airport or City:

Trip Planner

Search our weather history database for the weather conditions in past years. The results will help you decide how hot, cold, wet, or windy it might be!

Date:

Astronomy

May. 18, 2013 Rise Set
Actual Time 5:02 AM BST 9:28 PM BST
Civil Twilight 4:12 AM BST 10:18 PM BST
Nautical Twilight 2:54 AM BST 11:38 PM BST
Astronomical Twilight 1:47 AM BST Sun does not set
Moon 1:03 PM BST (5/18) 2:05 AM BST (5/18)
Length of Visible Light 18h 05m
Length of Day
16h 25m
First Quarter, 53% of the Moon is Illuminated
May 18
First Quarter
May 25
Full
May 31
Last Quarter
Jun 8
New
Jun 16
First Quarter

Hourly Weather History & Observations

Time (BST) Temp. Windchill Dew Point Humidity Pressure Visibility Wind Dir Wind Speed Gust Speed Precip Events Conditions
12:20 AM 50.0 °F - 39.2 °F 66% 29.89 in 6.2 mi Variable 2.3 mph - N/A   Partly Cloudy
12:50 AM 50.0 °F - 41.0 °F 71% 29.86 in 6.2 mi NW 3.5 mph - N/A   Partly Cloudy
1:50 AM 50.0 °F - 42.8 °F 76% 29.86 in 6.2 mi Calm Calm - N/A Rain Light Rain
2:50 AM 48.2 °F - 44.6 °F 87% 29.86 in 6.2 mi Calm Calm - N/A Rain Light Rain
3:50 AM 48.2 °F - 44.6 °F 87% 29.83 in 6.2 mi NW 4.6 mph - N/A Rain Light Rain
4:50 AM 46.4 °F 43.5 °F 46.4 °F 100% 29.83 in 6.2 mi NW 5.8 mph - N/A Rain Light Rain
5:50 AM 48.2 °F - 46.4 °F 93% 29.83 in 6.2 mi NW 3.5 mph - N/A Rain Light Rain
6:50 AM 48.2 °F - 46.4 °F 93% 29.83 in 3.7 mi NW 2.3 mph - N/A Rain Rain
7:20 AM 48.2 °F - 46.4 °F 93% 29.83 in 3.7 mi WNW 2.3 mph - N/A Rain Light Rain
7:50 AM 48.2 °F - 46.4 °F 93% 29.83 in 3.7 mi WNW 4.6 mph - N/A Rain Light Rain
8:20 AM 48.2 °F - 46.4 °F 93% 29.83 in 3.7 mi WNW 3.5 mph - N/A Rain Light Rain
8:50 AM 48.2 °F - 46.4 °F 93% 29.80 in 3.7 mi WNW 4.6 mph - N/A Rain Light Rain
9:20 AM 48.2 °F - 46.4 °F 93% 29.80 in 3.7 mi WNW 6.9 mph - N/A Rain Light Rain
9:50 AM 48.2 °F - 46.4 °F 93% 29.80 in 3.7 mi NW 3.5 mph - N/A Rain Light Rain
10:20 AM 48.2 °F - 48.2 °F 100% 29.77 in 3.7 mi NW 5.8 mph - N/A   Mostly Cloudy
10:50 AM 48.2 °F - 48.2 °F 100% 29.77 in 5.0 mi WNW 4.6 mph - N/A   Mostly Cloudy
11:20 AM 50.0 °F - 48.2 °F 94% 29.74 in 6.2 mi WNW 4.6 mph - N/A   Mostly Cloudy
11:50 AM 50.0 °F - 48.2 °F 94% 29.74 in 6.2 mi Calm Calm - N/A   Mostly Cloudy
12:20 PM 50.0 °F - 48.2 °F 94% 29.74 in 5.0 mi Calm Calm - N/A Rain Light Rain
12:50 PM 50.0 °F - 48.2 °F 94% 29.74 in 4.3 mi Variable 2.3 mph - N/A Rain Light Rain
1:20 PM 50.0 °F - 50.0 °F 100% 29.74 in 4.3 mi Calm Calm - N/A Rain Light Rain
1:50 PM 51.8 °F - 50.0 °F 94% 29.74 in 5.0 mi SSE 5.8 mph - N/A Rain Light Rain
2:20 PM 51.8 °F - 50.0 °F 94% 29.74 in 2.8 mi Calm Calm - N/A   Mostly Cloudy
2:50 PM 51.8 °F - 51.8 °F 100% 29.71 in 5.0 mi ENE 3.5 mph - N/A Rain Light Rain
3:20 PM 55.4 °F - 53.6 °F 94% 29.71 in 5.0 mi ENE 8.1 mph - N/A Rain Light Rain
3:50 PM 55.4 °F - 53.6 °F 94% 29.71 in 5.0 mi NE 17.3 mph - N/A Rain Rain
4:20 PM 55.4 °F - 51.8 °F 88% 29.71 in 5.0 mi ENE 12.7 mph - N/A Rain Light Rain
4:50 PM 55.4 °F - 51.8 °F 88% 29.71 in 5.0 mi ENE 10.4 mph - N/A Rain Light Rain
5:20 PM 53.6 °F - 51.8 °F 94% 29.71 in 5.0 mi East 9.2 mph 21.9 mph N/A Rain Light Rain
5:50 PM 53.6 °F - 51.8 °F 94% 29.71 in 5.0 mi ENE 12.7 mph 26.5 mph N/A Rain Light Rain
6:20 PM 53.6 °F - 51.8 °F 94% 29.71 in 5.0 mi East 11.5 mph 25.3 mph N/A Rain Light Rain
6:50 PM 53.6 °F - 50.0 °F 88% 29.74 in 5.0 mi ENE 11.5 mph 26.5 mph N/A   Mostly Cloudy
7:20 PM 53.6 °F - 50.0 °F 88% 29.71 in 3.1 mi East 9.2 mph - N/A Rain Light Rain
7:50 PM 51.8 °F - 50.0 °F 94% 29.74 in 3.7 mi East 6.9 mph - N/A Rain Rain
8:20 PM 51.8 °F - 50.0 °F 94% 29.74 in 3.7 mi East 5.8 mph - N/A Rain Light Rain
8:50 PM 51.8 °F - 50.0 °F 94% 29.77 in 4.3 mi East 6.9 mph - N/A Rain Light Rain
9:20 PM 51.8 °F - 50.0 °F 94% 29.77 in 4.3 mi East 4.6 mph - N/A Rain Light Rain
9:50 PM 51.8 °F - 50.0 °F 94% 29.77 in 5.0 mi Variable 3.5 mph - N/A Rain Light Rain Showers
10:20 PM 51.8 °F - 50.0 °F 94% 29.80 in 5.0 mi East 4.6 mph - N/A Rain Light Rain Showers
10:50 PM 51.8 °F - 50.0 °F 94% 29.80 in 4.3 mi ENE 4.6 mph - N/A Rain Light Rain Showers
11:20 PM 51.8 °F - 50.0 °F 94% 29.80 in 5.0 mi ENE 5.8 mph - N/A Rain Light Rain Showers
11:50 PM 50.0 °F - 48.2 °F 94% 29.80 in 5.6 mi ENE 3.5 mph - N/A Rain Light Rain Showers